User: anonymous   Login
Location: Cañada de la Miga
(34.7595°N, 106.2317°W)
Time: 23:24:31
(UTC+00:00)
Language:

Explorer 7 - Orbit

View from above orbital plane
View from above orbital plane
View from above satellite
View from above satellite

Ground track
Ground track

The orbit data is extracted from the following two-line orbital elements,

1 00022U 59009A   21340.54760136  .00001191  00000-0  10968-3 0  9998
2 00022  50.2836 100.7543 0137776 151.8409 209.0077 14.95929695550744
Epoch (UTC): 06 December 2021 13:08:32
Eccentricity: 0.0137776
inclination: 50.2836°
perigee height: 483 km
apogee height: 675 km
right ascension of ascending node: 100.7543°
argument of perigee: 151.8409°
revolutions per day: 14.95929695
mean anomaly at epoch: 209.0077°
orbit number at epoch: 55074

The dashed part of the orbit path shows where the satellite is in the earth's shadow,  

DLR